Weather History for Vernal, UT

Change the Weather History Date:

Monday, February 11, 2013

  Actual Average Record
Temperature  
Mean Temperature 11 °F 24 °F  
Max Temperature 21 °F 34 °F 55 °F (1951)
Min Temperature 1 °F 14 °F -21 °F (1933)
Degree Days  
Heating Degree Days 54 41  
Month to date heating degree days 532 469  
Since 1 July heating degree days 5091 4864  
Cooling Degree Days 0 0  
Month to date cooling degree days 0 0  
Year to date cooling degree days 0 0  
Moisture  
Dew Point 6 °F    
Average Humidity 80    
Maximum Humidity 92    
Minimum Humidity 67    
Precipitation  
Precipitation T in 0.01 in 0.26 in (1973)
Month to date precipitation 0.13 0.18  
Year to date precipitation 1.00 0.68  
Sea Level Pressure  
Sea Level Pressure 30.20 in    
Wind  
Wind Speed 2 mph (SW)    
Max Wind Speed 7 mph    
Max Gust Speed 9 mph    
Visibility 6 miles    
Events Fog , Snow    
T = Trace of Precipitation, MM = Missing Value Source: NWS Daily Summary

Daily Weather History Graph

Daily Weather History Graph

Search for Another Location

Airport:

Trip Planner

Search our weather history database for the weather conditions in past years. The results will help you decide how hot, cold, wet, or windy it might be!

Date:

Astronomy

Feb. 11, 2013 Rise Set
Actual Time 7:16 AM MST 5:48 PM MST
Civil Twilight 6:48 AM MST 6:17 PM MST
Nautical Twilight 6:15 AM MST 6:49 PM MST
Astronomical Twilight 5:44 AM MST 7:20 PM MST
Moon 7:42 AM MST (2/11) 7:49 PM MST (2/11)
Length of Visible Light 11h 29m
Length of Day
10h 32m
Waxing Crescent, 3% of the Moon is Illuminated
Feb 11
Waxing Crescent
Feb 17
First Quarter
Feb 25
Full
Mar 4
Last Quarter
Mar 11
New

Hourly Weather History & Observations

Time (MST) Temp. Windchill Dew Point Humidity Pressure Visibility Wind Dir Wind Speed Gust Speed Precip Events Conditions
12:53 AM 15.1 °F - 9.0 °F 77% 30.12 in 10.0 mi Calm Calm - N/A   Overcast
1:53 AM 14.0 °F - 8.1 °F 77% 30.12 in 10.0 mi Calm Calm - N/A   Overcast
2:53 AM 12.0 °F 5.9 °F 5.0 °F 73% 30.13 in 10.0 mi East 3.5 mph - N/A   Mostly Cloudy
3:53 AM 8.1 °F - 1.9 °F 76% 30.15 in 10.0 mi Calm Calm - N/A   Scattered Clouds
5:53 AM 3.9 °F -6.9 °F -0.9 °F 80% 30.18 in 10.0 mi West 5.8 mph - N/A   Clear
6:53 AM 3.0 °F -6.4 °F -2.0 °F 80% 30.22 in 10.0 mi SSE 4.6 mph - N/A   Clear
6:58 AM 1.4 °F -8.3 °F -2.2 °F 85% 30.01 in 2.5 mi South 4.6 mph - N/A   Partly Cloudy
7:00 AM 1.4 °F -8.3 °F -2.2 °F 85% 30.02 in 1.0 mi South 4.6 mph - N/A   Mist
7:07 AM 1.4 °F -8.3 °F -0.4 °F 92% 30.02 in 0.2 mi South 4.6 mph - N/A Fog Light Freezing Fog
7:49 AM 3.2 °F -6.2 °F 1.4 °F 92% 30.04 in 1.2 mi West 4.6 mph - N/A   Overcast
7:53 AM 3.9 °F -3.4 °F 1.9 °F 91% 30.25 in 1.0 mi West 3.5 mph - N/A   Mist
8:00 AM 3.2 °F -4.2 °F 1.4 °F 92% 30.04 in 0.5 mi West 3.5 mph - N/A Fog Light Freezing Fog
8:53 AM 8.1 °F - 7.0 °F 95% 30.27 in 0.2 mi Calm Calm - N/A Fog Light Freezing Fog
9:53 AM 12.0 °F - 10.0 °F 92% 30.28 in 0.2 mi Calm Calm - 0.00 in Fog , Snow Light Snow
10:53 AM 12.9 °F - 10.9 °F 92% 30.30 in 0.8 mi Calm Calm - 0.00 in Snow Light Snow
11:05 AM 14.0 °F - 10.4 °F 86% 30.09 in 1.5 mi Calm Calm - 0.00 in Snow Light Snow
11:22 AM 14.0 °F - 10.4 °F 86% 30.09 in 2.0 mi Calm Calm - 0.00 in   Mostly Cloudy
11:27 AM 12.2 °F - 10.4 °F 92% 30.09 in 5.0 mi Calm Calm - 0.00 in   Scattered Clouds
11:53 AM 15.1 °F - 10.0 °F 80% 30.27 in 7.0 mi Calm Calm - 0.00 in   Clear
12:53 PM 16.0 °F 8.8 °F 10.0 °F 77% 30.23 in 10.0 mi ENE 4.6 mph - N/A   Clear
1:53 PM 17.1 °F 10.0 °F 10.9 °F 77% 30.22 in 10.0 mi ENE 4.6 mph - N/A   Clear
2:53 PM 19.9 °F - 10.9 °F 68% 30.22 in 10.0 mi Calm Calm - N/A   Clear
3:53 PM 19.0 °F - 10.9 °F 71% 30.25 in 10.0 mi Calm Calm - N/A   Overcast
4:53 PM 17.1 °F 11.7 °F 10.0 °F 74% 30.26 in 10.0 mi ENE 3.5 mph - N/A   Clear
5:53 PM 15.1 °F - 9.0 °F 77% 30.30 in 10.0 mi Calm Calm - N/A   Clear
6:53 PM 10.9 °F - 6.1 °F 81% 30.34 in 8.0 mi Calm Calm - N/A   Clear
7:53 PM 10.9 °F 2.9 °F 6.1 °F 81% 30.35 in 10.0 mi West 4.6 mph - N/A   Clear
8:53 PM 10.9 °F 4.7 °F 6.1 °F 81% 30.34 in 8.0 mi West 3.5 mph - N/A   Clear
9:53 PM 3.0 °F - -0.9 °F 84% 30.37 in 10.0 mi Calm Calm - N/A   Overcast
10:53 PM 7.0 °F - 3.0 °F 84% 30.36 in 8.0 mi Calm Calm - N/A   Scattered Clouds
11:53 PM 6.1 °F -0.9 °F 1.9 °F 83% 30.36 in 9.0 mi WNW 3.5 mph - N/A   Overcast